KFYG Airport (Washington Rgnl) Information

FAA: FYG - ICAO: KFYG

KFYG Airport Location

State Missouri
County Warren
City Washington
KFYG Airport is 3 miles north of Washington, MO.
Latitude 38-35-15.3000N
Longitude 090-59-37.7000W
Elevation 487ft

KFYG Airport METARs

METAR KFYG 071935Z AUTO 00000KT 5SM BR BKN013 BKN024 10/10 A3027 RMK AO2
Altimeter 30.27"
Temperature 10.0°C (50.0°F)
Wind 0° at 0KT
Clouds broken at 1,300ft broken at 2,400ft
Visibility 5.0mi
Time observed: 2022-12-07T19:35:00Z

KFYG Airport Details

Status Operational
Activation N/A
Ownership Public
Usage Public
Chart ST LOUIS
ATC on-site No
Beacon schedule sunset-sunrise
Beacon color clear green

KFYG Airport Contacts

Owner CITY OF WASHINGTON
Owner address 405 JEFFERSON STREET, WASHINGTON, MO 63090
Owner phone 636-390-1006
Manager ROD HOOPER
Manager address PO BOX 227, URBANA, MO 65767
Manager phone 417-993-5447

KFYG Airport (Washington Rgnl) Radio Frequencies

KFYG (Airport) Radio Frequencies

UNICOM 122.8
Common traffic advisory frequency (CTAF) 122.8